STARLINK-1765, 46344

Orbit data source: Space-Track

STARLINK-1765, 46344 is a payload satellite owned by SpaceX/Seattle (US) in LEO that was launched on Thu, 03 Sep 2020 UTC via an FALCON 9 launch vehicle from the Air Force Eastern Test Range (AFETR). Payload-class satellites include a variety of spacecraft equipped with specific instruments for various scientific and technological missions. These include communications satellites like Starlink; space stations such as the ISS; scientific satellites like the Hubble; Earth observation satellites from companies like Planet Labs, Umbra, and HawkEye 360; GPS; miniature CubeSats for education and research; and military/defense satellites.

Loading next visibility...
Identifier
46344, 2020-062V
Orbit
LEO
Country
Flag of USUS
Related business
Manufacturer
SpaceX/Seattle
Mission
Operational Commercial Communications
Bus & Motor
STARLINK, Unknown motor
Mass
260 kg wet, ~248 kg dry
Launch date (UTC)
2020-09-03 (5 years ago)
Launch vehicle
FALCON 9
Launch site
Air Force Eastern Test Range (AFETR)
Object type
Payload
Rocket body
Debris
Shape & HBR
Box + 1 Pan, 10.1 m
Radar Cross Section
13.562 m², Large (>1 m²)

Expand to show TLE details & history
Last TLE update: 7 hours ago

TLE from 7 hours ago
0 STARLINK-1765
1 46344U 20062V   25287.01252019  .00105690  00000-0  30145-2 0  9991
2 46344  53.0545 292.7549 0001686  78.6195 281.4996 15.35231097282513
Epoch: 2025-10-14T00:18Z
TLE epoch observation values (Epoch: 2025-10-14T00:18:01.744Z)
Latitude
-0.00001°
Longitude
-94.55943°
Altitude
460.895 km
Speed
7.638 km/s
True Right ascension
19h 31m 01s
True Declination
0° 00' 00"
Sunlit
Object was in daylight at epoch
Visualization orbit readout
Latitude
Unknown
Longitude
Unknown
Altitude
Unknown
Speed
Unknown
Apparent Right ascension
Unknown
Apparent Declination
Unknown
Sunlit
N/A
Visualization observer readout
Local Sidereal Time
01:26:15
Azimuth
Unknown
Elevation
Unknown
Doppler factor
Unknown
Orbital elements
Apogee altitude
461.661 km
Perigee altitude
459.355 km
Semi-major axis
6,838.645 km
Eccentricity
0.00017
Inclination
53.0545°
RAAN
292.7549°
Arg. of periapsis
78.6195°
True anomaly
281.48067°
Mean anomaly
281.4996°
Eccentric anomaly
281.49013°
Mean motion
3.83785 °/min
Orbital period
93.8 mins
BSTAR
0.0030145
Loading maneuver chart data...
Computing Atmospheric mass density...
Loading historical data...
Loading historical data...
Loading historical data...
Loading historical data...
Loading historical data...
Loading historical data...
Loading historical data...

Documentation

Showing up to 5 results
|